A/2019 O2

Japanese version
Home page
Updated on November 9, 2019

---------------------------------------------------------------------

* Profile

Discovery Date July 24, 2019
Magnitude 20.5 mag
Discoverer Pan-STARRS 1 telescope (Haleakala)

* Orbital Elements

Epoch 2023 Apr. 6.0 TT = JDT 2460040.5
T 2023 Apr. 7.89664 TT                                  Williams
q   9.6802153            (2000.0)            P               Q
z  +0.0173041      Peri.  129.67421     -0.39190195     -0.53989846
 +/-0.0000000      Node    48.26000     -0.76983655     -0.25090811
e   0.8324926      Incl.   93.30678     +0.50375048     -0.80346423
H    9.5
From 52 observations 2019 July 24-Oct. 23, mean residual 0".3.

* Magnitudes Graph

        H = 9.5  G = 0.15

---------------------------------------------------------------------

The orbital elements are published on M.P.E.C. 2019-V116.
The magnitudes graphs are made with Comet for Windows.

---------------------------------------------------------------------

Copyright(C) Seiichi Yoshida (comet@aerith.net). All rights reserved.